Time,TemperatureF,DewpointF,PressureIn,WindDirection,WindDirectionDegrees,WindSpeedMPH,WindSpeedGustMPH,Humidity,HourlyPrecipIn,Conditions,Clouds,dailyrainin,SolarRadiationWatts/m^2,SoftwareType,DateUTC
2013-09-11 00:02:00,51.0,51.0,-100.00,NW,307,3.0,6.0,100,0.17,,,-99.99,0.800000,,2013-09-11 08:02:00,
2013-09-11 00:11:00,51.0,51.0,-100.00,NW,307,3.0,6.0,100,0.17,,,-99.99,0.800000,,2013-09-11 08:11:00,
2013-09-11 00:21:00,51.0,51.0,-100.00,NW,307,3.0,6.0,100,0.17,,,-99.99,0.800000,,2013-09-11 08:21:00,
2013-09-11 00:52:00,50.0,50.0,-100.00,WNW,299,3.0,8.0,100,0.13,,,1.70,0.800000,,2013-09-11 08:52:00,
2013-09-11 01:01:00,50.0,50.0,-100.00,WNW,299,3.0,8.0,100,0.13,,,1.70,0.800000,,2013-09-11 09:01:00,
2013-09-11 01:11:00,50.0,50.0,-100.00,WNW,299,3.0,8.0,100,0.13,,,1.70,0.800000,,2013-09-11 09:11:00,
2013-09-11 01:21:00,50.0,50.0,-100.00,WNW,299,3.0,8.0,100,0.13,,,1.70,0.800000,,2013-09-11 09:21:00,
2013-09-11 01:53:00,50.0,50.0,-100.00,WSW,239,3.0,9.0,100,0.15,,,1.85,0.800000,,2013-09-11 09:53:00,
2013-09-11 02:03:00,50.0,50.0,-100.00,WSW,239,3.0,9.0,100,0.15,,,1.85,0.800000,,2013-09-11 10:03:00,
2013-09-11 02:12:00,50.0,50.0,-100.00,WSW,239,3.0,9.0,100,0.15,,,1.85,0.800000,,2013-09-11 10:12:00,
2013-09-11 02:23:00,50.0,50.0,-100.00,WSW,239,3.0,9.0,100,0.15,,,1.85,0.800000,,2013-09-11 10:23:00,
2013-09-11 02:53:00,50.0,50.0,-100.00,NNE,15,1.0,6.0,100,0.25,,,2.01,0.800000,,2013-09-11 10:53:00,
2013-09-11 03:03:00,50.0,50.0,-100.00,NNE,15,1.0,6.0,100,0.25,,,2.01,0.800000,,2013-09-11 11:03:00,
2013-09-11 03:12:00,50.0,50.0,-100.00,NNE,15,1.0,6.0,100,0.25,,,2.01,0.800000,,2013-09-11 11:12:00,
2013-09-11 03:21:00,50.0,50.0,-100.00,NNE,15,1.0,6.0,100,0.25,,,2.01,0.800000,,2013-09-11 11:21:00,
2013-09-11 03:52:00,50.0,50.0,-100.00,NE,56,3.0,8.0,100,0.18,,,-99.99,0.800000,,2013-09-11 11:52:00,
2013-09-11 04:01:00,50.0,50.0,-100.00,NE,56,3.0,8.0,100,0.18,,,-99.99,0.800000,,2013-09-11 12:01:00,
2013-09-11 04:11:00,50.0,50.0,-100.00,NE,56,3.0,8.0,100,0.18,,,-99.99,0.800000,,2013-09-11 12:11:00,
2013-09-11 04:21:00,50.0,50.0,-100.00,NE,56,3.0,8.0,100,0.18,,,-99.99,0.800000,,2013-09-11 12:21:00,
2013-09-11 04:52:00,49.0,49.0,-100.00,ENE,73,5.0,8.0,100,0.24,,,-99.99,0.800000,,2013-09-11 12:52:00,
2013-09-11 05:02:00,49.0,49.0,-100.00,ENE,73,5.0,8.0,100,0.24,,,-99.99,0.800000,,2013-09-11 13:02:00,
2013-09-11 05:12:00,49.0,49.0,-100.00,ENE,73,5.0,8.0,100,0.24,,,-99.99,0.800000,,2013-09-11 13:12:00,
2013-09-11 05:21:00,49.0,49.0,-100.00,ENE,73,5.0,8.0,100,0.24,,,-99.99,0.800000,,2013-09-11 13:21:00,
2013-09-11 05:52:00,49.0,48.0,-100.00,NE,50,3.0,8.0,98,0.21,,,-99.99,0.800000,,2013-09-11 13:52:00,
2013-09-11 06:02:00,49.0,48.0,-100.00,NE,50,3.0,8.0,98,0.21,,,-99.99,0.800000,,2013-09-11 14:02:00,
2013-09-11 06:11:00,49.0,48.0,-100.00,NE,50,3.0,8.0,98,0.21,,,-99.99,0.800000,,2013-09-11 14:11:00,
2013-09-11 06:21:00,49.0,48.0,-100.00,NE,50,3.0,8.0,98,0.21,,,-99.99,0.800000,,2013-09-11 14:21:00,
2013-09-11 06:52:00,48.0,47.0,-100.00,SW,229,4.0,9.0,98,0.07,,,2.06,0.800000,,2013-09-11 14:52:00,
2013-09-11 07:02:00,48.0,47.0,-100.00,SW,229,4.0,9.0,98,0.07,,,2.06,0.800000,,2013-09-11 15:02:00,
2013-09-11 07:11:00,48.0,47.0,-100.00,SW,229,4.0,9.0,98,0.07,,,2.06,0.800000,,2013-09-11 15:11:00,
2013-09-11 07:22:00,48.0,47.0,-100.00,SW,229,4.0,9.0,98,0.07,,,2.06,0.800000,,2013-09-11 15:22:00,
2013-09-11 07:54:00,47.0,46.0,-100.00,West,268,3.0,8.0,96,0.00,,,2.02,1.100000,,2013-09-11 15:54:00,
2013-09-11 08:03:00,47.0,46.0,-100.00,West,268,3.0,8.0,96,0.00,,,2.02,1.100000,,2013-09-11 16:03:00,
2013-09-11 08:13:00,47.0,46.0,-100.00,West,268,3.0,8.0,96,0.00,,,2.02,1.100000,,2013-09-11 16:13:00,
2013-09-11 08:23:00,47.0,46.0,-100.00,West,268,3.0,8.0,96,0.00,,,2.02,1.100000,,2013-09-11 16:23:00,
2013-09-11 08:53:00,48.0,45.0,-100.00,WSW,244,3.0,5.0,89,0.01,,,2.02,15.300000,,2013-09-11 16:53:00,
2013-09-11 09:03:00,48.0,45.0,-100.00,WSW,244,3.0,5.0,89,0.01,,,2.02,15.300000,,2013-09-11 17:03:00,
2013-09-11 09:12:00,48.0,45.0,-100.00,WSW,244,3.0,5.0,89,0.01,,,2.02,15.300000,,2013-09-11 17:12:00,
2013-09-11 09:23:00,48.0,45.0,-100.00,WSW,244,3.0,5.0,89,0.01,,,2.02,15.300000,,2013-09-11 17:23:00,
2013-09-11 09:52:00,49.0,45.0,-100.00,West,263,3.0,5.0,87,0.00,,,1.90,59.099998,,2013-09-11 17:52:00,
2013-09-11 10:02:00,49.0,45.0,-100.00,West,263,3.0,5.0,87,0.00,,,1.90,59.099998,,2013-09-11 18:02:00,
2013-09-11 10:12:00,49.0,45.0,-100.00,West,263,3.0,5.0,87,0.00,,,1.90,59.099998,,2013-09-11 18:12:00,
2013-09-11 10:21:00,49.0,45.0,-100.00,West,263,3.0,5.0,87,0.00,,,1.90,59.099998,,2013-09-11 18:21:00,
2013-09-11 10:52:00,50.0,46.0,-100.00,North,357,2.0,4.0,84,0.00,,,1.84,84.900002,,2013-09-11 18:52:00,
2013-09-11 11:01:00,50.0,46.0,-100.00,North,357,2.0,4.0,84,0.00,,,1.84,84.900002,,2013-09-11 19:01:00,
2013-09-11 11:11:00,50.0,46.0,-100.00,North,357,2.0,4.0,84,0.00,,,1.84,84.900002,,2013-09-11 19:11:00,
2013-09-11 11:21:00,50.0,46.0,-100.00,North,357,2.0,4.0,84,0.00,,,1.84,84.900002,,2013-09-11 19:21:00,
2013-09-11 11:53:00,53.0,48.0,-100.00,ESE,106,2.0,4.0,84,0.00,,,1.79,207.199997,,2013-09-11 19:53:00,
2013-09-11 12:02:00,53.0,48.0,-100.00,ESE,106,2.0,4.0,84,0.00,,,1.79,207.199997,,2013-09-11 20:02:00,
2013-09-11 12:12:00,53.0,48.0,-100.00,ESE,106,2.0,4.0,84,0.00,,,1.79,207.199997,,2013-09-11 20:12:00,
2013-09-11 12:21:00,53.0,48.0,-100.00,ESE,106,2.0,4.0,84,0.00,,,1.79,207.199997,,2013-09-11 20:21:00,
2013-09-11 12:52:00,56.0,47.0,-100.00,ESE,121,3.0,4.0,71,0.00,,,1.74,481.799988,,2013-09-11 20:52:00,
2013-09-11 13:02:00,56.0,47.0,-100.00,ESE,121,3.0,4.0,71,0.00,,,1.74,481.799988,,2013-09-11 21:02:00,
2013-09-11 13:11:00,56.0,47.0,-100.00,ESE,121,3.0,4.0,71,0.00,,,1.74,481.799988,,2013-09-11 21:11:00,
2013-09-11 13:21:00,56.0,47.0,-100.00,ESE,121,3.0,4.0,71,0.00,,,1.74,481.799988,,2013-09-11 21:21:00,
2013-09-11 13:54:00,57.0,47.0,-100.00,ESE,107,3.0,6.0,69,0.00,,,1.74,565.900024,,2013-09-11 21:54:00,
2013-09-11 14:04:00,57.0,47.0,-100.00,ESE,107,3.0,6.0,69,0.00,,,1.74,565.900024,,2013-09-11 22:04:00,
2013-09-11 14:13:00,57.0,47.0,-100.00,ESE,107,3.0,6.0,69,0.00,,,1.74,565.900024,,2013-09-11 22:13:00,
2013-09-11 14:24:00,57.0,47.0,-100.00,ESE,107,3.0,6.0,69,0.00,,,1.74,565.900024,,2013-09-11 22:24:00,
2013-09-11 14:54:00,56.0,47.0,-100.00,ESE,116,3.0,6.0,70,0.00,,,1.72,573.099976,,2013-09-11 22:54:00,
2013-09-11 15:03:00,56.0,47.0,-100.00,ESE,116,3.0,6.0,70,0.00,,,1.72,573.099976,,2013-09-11 23:03:00,
2013-09-11 15:12:00,56.0,47.0,-100.00,ESE,116,3.0,6.0,70,0.00,,,1.72,573.099976,,2013-09-11 23:12:00,
2013-09-11 15:22:00,56.0,47.0,-100.00,ESE,116,3.0,6.0,70,0.00,,,1.72,573.099976,,2013-09-11 23:22:00,
2013-09-11 15:53:00,56.0,48.0,-100.00,SSE,164,3.0,7.0,74,0.00,,,1.69,494.399994,,2013-09-11 23:53:00,
2013-09-11 16:01:00,56.0,48.0,-100.00,SSE,164,3.0,7.0,74,0.00,,,1.69,494.399994,,2013-09-12 00:01:00,
2013-09-11 16:11:00,56.0,48.0,-100.00,SSE,164,3.0,7.0,74,0.00,,,1.69,494.399994,,2013-09-12 00:11:00,
2013-09-11 16:21:00,56.0,48.0,-100.00,SSE,164,3.0,7.0,74,0.00,,,1.69,494.399994,,2013-09-12 00:21:00,
2013-09-11 16:52:00,60.0,48.0,-100.00,SSE,147,3.0,6.0,64,0.00,,,1.66,397.500000,,2013-09-12 00:52:00,
2013-09-11 17:01:00,60.0,48.0,-100.00,SSE,147,3.0,6.0,64,0.00,,,1.66,397.500000,,2013-09-12 01:01:00,
2013-09-11 17:11:00,60.0,48.0,-100.00,SSE,147,3.0,6.0,64,0.00,,,1.66,397.500000,,2013-09-12 01:11:00,
2013-09-11 17:22:00,60.0,48.0,-100.00,SSE,147,3.0,6.0,64,0.00,,,1.66,397.500000,,2013-09-12 01:22:00,
2013-09-11 17:52:00,55.0,48.0,-100.00,SSE,148,4.0,5.0,76,0.00,,,1.62,391.399994,,2013-09-12 01:52:00,
2013-09-11 18:03:00,55.0,48.0,-100.00,SSE,148,4.0,5.0,76,0.00,,,1.62,391.399994,,2013-09-12 02:03:00,
2013-09-11 18:12:00,55.0,48.0,-100.00,SSE,148,4.0,5.0,76,0.00,,,1.62,391.399994,,2013-09-12 02:12:00,
2013-09-11 18:21:00,55.0,48.0,-100.00,SSE,148,4.0,5.0,76,0.00,,,1.62,391.399994,,2013-09-12 02:21:00,
2013-09-11 19:11:00,53.0,48.0,-100.00,SSE,157,3.0,6.0,83,0.00,,,1.61,187.800003,,2013-09-12 03:11:00,
2013-09-11 19:22:00,53.0,48.0,-100.00,SSE,157,3.0,6.0,83,0.00,,,1.61,187.800003,,2013-09-12 03:22:00,
2013-09-11 20:54:00,51.0,46.0,-100.00,SW,233,2.0,6.0,84,-99.99,,,1.60,11.300000,,2013-09-12 04:54:00,
2013-09-11 21:03:00,51.0,46.0,-100.00,SW,233,2.0,6.0,84,-99.99,,,1.60,11.300000,,2013-09-12 05:03:00,
2013-09-11 21:13:00,51.0,46.0,-100.00,SW,233,2.0,6.0,84,-99.99,,,1.60,11.300000,,2013-09-12 05:13:00,
2013-09-11 21:22:00,51.0,46.0,-100.00,SW,233,2.0,6.0,84,-99.99,,,1.60,11.300000,,2013-09-12 05:22:00,
2013-09-11 21:53:00,50.0,46.0,-100.00,East,96,2.0,4.0,85,0.00,,,1.53,1.200000,,2013-09-12 05:53:00,
2013-09-11 22:01:00,50.0,46.0,-100.00,East,96,2.0,4.0,85,0.00,,,1.53,1.200000,,2013-09-12 06:01:00,
2013-09-11 22:12:00,50.0,46.0,-100.00,East,96,2.0,4.0,85,0.00,,,1.53,1.200000,,2013-09-12 06:12:00,
2013-09-11 22:21:00,50.0,46.0,-100.00,East,96,2.0,4.0,85,0.00,,,1.53,1.200000,,2013-09-12 06:21:00,
2013-09-11 22:52:00,49.0,45.0,-100.00,SSW,195,6.0,9.0,86,0.00,,,1.41,0.800000,,2013-09-12 06:52:00,
2013-09-11 23:02:00,49.0,45.0,-100.00,SSW,195,6.0,9.0,86,0.00,,,1.41,0.800000,,2013-09-12 07:02:00,
2013-09-11 23:12:00,49.0,45.0,-100.00,SSW,195,6.0,9.0,86,0.00,,,1.41,0.800000,,2013-09-12 07:12:00,
2013-09-11 23:21:00,49.0,45.0,-100.00,SSW,195,6.0,9.0,86,0.00,,,1.41,0.800000,,2013-09-12 07:21:00,
2013-09-11 23:52:00,49.0,46.0,-100.00,South,185,5.0,9.0,89,0.00,,,1.24,0.800000,,2013-09-12 07:52:00,